TimeEDT,TemperatureF,Dew PointF,Humidity,Sea Level PressureIn,VisibilityMPH,Wind Direction,Wind SpeedMPH,Gust SpeedMPH,PrecipitationIn,Events,Conditions,WindDirDegrees,DateUTC
12:15 AM,68.0,64.4,88,29.91,10.0,SSE,4.6,-,N/A,,Overcast,160,2013-06-06 04:15:00
12:35 AM,68.0,64.4,88,29.91,10.0,South,5.8,-,N/A,,Overcast,170,2013-06-06 04:35:00
12:55 AM,68.0,64.4,88,29.90,10.0,South,6.9,-,N/A,,Scattered Clouds,190,2013-06-06 04:55:00
1:15 AM,68.0,64.4,88,29.90,10.0,South,8.1,-,N/A,,Overcast,190,2013-06-06 05:15:00
1:35 AM,68.0,62.6,83,29.89,10.0,South,8.1,-,N/A,,Mostly Cloudy,170,2013-06-06 05:35:00
1:55 AM,66.2,62.6,88,29.89,10.0,South,8.1,-,N/A,,Scattered Clouds,180,2013-06-06 05:55:00
2:15 AM,66.2,62.6,88,29.88,10.0,South,8.1,-,N/A,,Scattered Clouds,180,2013-06-06 06:15:00
2:35 AM,66.2,62.6,88,29.87,10.0,South,6.9,-,N/A,,Scattered Clouds,180,2013-06-06 06:35:00
2:55 AM,66.2,62.6,88,29.87,10.0,South,8.1,-,N/A,,Clear,180,2013-06-06 06:55:00
3:15 AM,66.2,62.6,88,29.87,10.0,South,8.1,-,N/A,,Scattered Clouds,190,2013-06-06 07:15:00
3:35 AM,66.2,62.6,88,29.86,10.0,South,5.8,-,N/A,,Scattered Clouds,180,2013-06-06 07:35:00
3:55 AM,66.2,62.6,88,29.86,10.0,South,8.1,-,N/A,,Clear,180,2013-06-06 07:55:00
4:15 AM,66.2,60.8,83,29.85,10.0,South,8.1,-,N/A,,Clear,180,2013-06-06 08:15:00
4:35 AM,66.2,60.8,83,29.85,10.0,South,9.2,-,N/A,,Clear,180,2013-06-06 08:35:00
4:55 AM,64.4,60.8,88,29.85,10.0,South,10.4,-,N/A,,Clear,190,2013-06-06 08:55:00
5:15 AM,64.4,60.8,88,29.85,10.0,South,6.9,-,N/A,,Clear,190,2013-06-06 09:15:00
5:35 AM,64.4,60.8,88,29.85,10.0,South,8.1,-,N/A,,Scattered Clouds,190,2013-06-06 09:35:00
5:55 AM,66.2,62.6,88,29.85,10.0,SSW,9.2,-,N/A,,Mostly Cloudy,200,2013-06-06 09:55:00
6:15 AM,66.2,60.8,83,29.85,10.0,South,6.9,-,N/A,,Overcast,190,2013-06-06 10:15:00
6:35 AM,66.2,60.8,83,29.85,10.0,South,5.8,-,N/A,,Mostly Cloudy,190,2013-06-06 10:35:00
6:55 AM,66.2,62.6,88,29.85,10.0,South,6.9,-,N/A,,Scattered Clouds,180,2013-06-06 10:55:00
7:15 AM,66.2,62.6,88,29.85,10.0,South,4.6,-,N/A,,Mostly Cloudy,170,2013-06-06 11:15:00
7:35 AM,66.2,62.6,88,29.85,10.0,SSE,4.6,-,N/A,,Mostly Cloudy,160,2013-06-06 11:35:00
7:55 AM,66.2,62.6,88,29.85,10.0,South,5.8,-,N/A,,Overcast,180,2013-06-06 11:55:00
8:15 AM,68.0,62.6,83,29.85,10.0,South,6.9,-,N/A,,Overcast,190,2013-06-06 12:15:00
8:35 AM,68.0,62.6,83,29.84,10.0,South,5.8,-,N/A,,Scattered Clouds,190,2013-06-06 12:35:00
8:55 AM,68.0,62.6,83,29.83,10.0,South,4.6,-,N/A,,Scattered Clouds,170,2013-06-06 12:55:00
9:15 AM,69.8,62.6,78,29.83,10.0,South,6.9,-,N/A,,Scattered Clouds,190,2013-06-06 13:15:00
9:35 AM,71.6,64.4,78,29.83,10.0,South,9.2,-,N/A,,Scattered Clouds,190,2013-06-06 13:35:00
9:55 AM,71.6,64.4,78,29.84,10.0,SW,9.2,-,N/A,,Mostly Cloudy,220,2013-06-06 13:55:00
10:15 AM,71.6,64.4,78,29.84,10.0,SW,5.8,-,N/A,,Overcast,220,2013-06-06 14:15:00
10:35 AM,71.6,62.6,73,29.84,10.0,SSW,8.1,-,N/A,,Overcast,210,2013-06-06 14:35:00
10:55 AM,69.8,62.6,78,29.85,10.0,SSW,9.2,-,N/A,,Overcast,210,2013-06-06 14:55:00
11:15 AM,69.8,64.4,83,29.85,10.0,SW,6.9,-,N/A,,Overcast,220,2013-06-06 15:15:00
11:35 AM,71.6,64.4,78,29.84,10.0,SW,8.1,-,N/A,,Overcast,220,2013-06-06 15:35:00
11:55 AM,71.6,64.4,78,29.84,10.0,SW,9.2,17.3,N/A,,Overcast,220,2013-06-06 15:55:00
12:15 PM,71.6,64.4,78,29.84,7.0,WSW,11.5,-,N/A,,Overcast,250,2013-06-06 16:15:00
12:35 PM,73.4,62.6,69,29.84,10.0,WSW,16.1,21.9,N/A,,Overcast,250,2013-06-06 16:35:00
12:55 PM,75.2,62.6,65,29.84,10.0,WSW,11.5,18.4,N/A,,Overcast,240,2013-06-06 16:55:00
1:15 PM,75.2,62.6,65,29.83,10.0,West,12.7,-,N/A,,Overcast,260,2013-06-06 17:15:00
1:35 PM,77.0,62.6,61,29.83,10.0,WSW,12.7,19.6,N/A,,Overcast,250,2013-06-06 17:35:00
1:55 PM,75.2,62.6,65,29.82,10.0,West,10.4,19.6,N/A,,Overcast,260,2013-06-06 17:55:00
2:15 PM,77.0,62.6,61,29.82,10.0,West,10.4,-,N/A,,Overcast,260,2013-06-06 18:15:00
2:35 PM,77.0,62.6,61,29.82,10.0,West,13.8,18.4,N/A,,Mostly Cloudy,280,2013-06-06 18:35:00
2:55 PM,77.0,62.6,61,29.81,10.0,WNW,9.2,-,N/A,,Mostly Cloudy,290,2013-06-06 18:55:00
3:15 PM,77.0,62.6,61,29.81,10.0,West,6.9,10.4,N/A,,Overcast,280,2013-06-06 19:15:00
3:35 PM,77.0,62.6,61,29.81,10.0,West,9.2,-,N/A,,Overcast,280,2013-06-06 19:35:00
3:55 PM,75.2,64.4,69,29.81,10.0,WNW,8.1,-,N/A,,Overcast,300,2013-06-06 19:55:00
4:15 PM,75.2,62.6,65,29.81,10.0,West,10.4,-,N/A,,Overcast,280,2013-06-06 20:15:00
4:35 PM,77.0,62.6,61,29.81,10.0,WNW,9.2,-,N/A,,Overcast,290,2013-06-06 20:35:00
4:55 PM,78.8,62.6,57,29.80,10.0,West,6.9,-,N/A,,Scattered Clouds,260,2013-06-06 20:55:00
5:15 PM,77.0,62.6,61,29.80,10.0,WNW,8.1,-,N/A,,Mostly Cloudy,290,2013-06-06 21:15:00
5:35 PM,77.0,60.8,57,29.80,10.0,West,9.2,-,N/A,,Mostly Cloudy,280,2013-06-06 21:35:00
5:55 PM,77.0,62.6,61,29.79,10.0,WNW,6.9,-,N/A,,Mostly Cloudy,290,2013-06-06 21:55:00
6:15 PM,77.0,62.6,61,29.79,10.0,WNW,10.4,-,N/A,,Mostly Cloudy,290,2013-06-06 22:15:00
6:35 PM,77.0,62.6,61,29.78,10.0,WNW,5.8,-,N/A,,Overcast,300,2013-06-06 22:35:00
6:55 PM,77.0,60.8,57,29.78,10.0,WNW,5.8,-,N/A,,Scattered Clouds,300,2013-06-06 22:55:00
7:15 PM,77.0,60.8,57,29.79,10.0,WNW,9.2,-,N/A,,Clear,300,2013-06-06 23:15:00
7:35 PM,75.2,60.8,61,29.79,10.0,WNW,5.8,-,N/A,,Clear,300,2013-06-06 23:35:00
7:55 PM,75.2,62.6,65,29.79,7.0,WNW,5.8,-,N/A,,Clear,290,2013-06-06 23:55:00
8:15 PM,73.4,62.6,69,29.79,10.0,WNW,4.6,-,N/A,,Clear,300,2013-06-07 00:15:00
8:35 PM,73.4,64.4,73,29.79,7.0,Calm,Calm,-,N/A,,Scattered Clouds,0,2013-06-07 00:35:00
8:55 PM,71.6,62.6,73,29.79,7.0,Calm,Calm,-,N/A,,Scattered Clouds,0,2013-06-07 00:55:00
9:15 PM,71.6,64.4,78,29.79,7.0,Calm,Calm,-,N/A,,Clear,0,2013-06-07 01:15:00
9:35 PM,71.6,64.4,78,29.79,7.0,Calm,Calm,-,N/A,,Clear,0,2013-06-07 01:35:00
9:55 PM,71.6,64.4,78,29.80,10.0,Calm,Calm,-,N/A,,Scattered Clouds,0,2013-06-07 01:55:00
10:15 PM,69.8,64.4,83,29.80,7.0,NNE,4.6,-,N/A,,Mostly Cloudy,20,2013-06-07 02:15:00
10:35 PM,69.8,64.4,83,29.81,7.0,Calm,Calm,-,N/A,,Mostly Cloudy,0,2013-06-07 02:35:00
10:55 PM,69.8,62.6,78,29.81,7.0,NNE,3.5,-,N/A,,Mostly Cloudy,30,2013-06-07 02:55:00
11:15 PM,69.8,64.4,83,29.81,10.0,North,4.6,-,N/A,,Overcast,360,2013-06-07 03:15:00
11:35 PM,68.0,64.4,88,29.81,7.0,North,3.5,-,N/A,,Overcast,10,2013-06-07 03:35:00
11:55 PM,68.0,64.4,88,29.81,10.0,NNE,4.6,-,N/A,,Scattered Clouds,20,2013-06-07 03:55:00